• In Hungary
  • List of Countries
  • For 7 days
  • Water Temperature
  • Satellite Maps
  • Weather Map
  • News
  • Weather Widgets
  • user-avatar
    Login

    Hourly Weather Melbourne

    Today, 18 January, Thursday

    Time Temperature Precipitation Wind Pressure Humidity
    00:00 +21°C° 0 mm 1 mps 760 mmHg 51%
    01:00 +21°C° 0 mm 1 mps 760 mmHg 51%
    02:00 +21°C° 0 mm 1 mps 760 mmHg 50%
    03:00 +20°C° 0 mm 2 mps 760 mmHg 48%
    04:00 +20°C° 0 mm 2 mps 760 mmHg 48%
    05:00 +21°C° 0 mm 3 mps 760 mmHg 46%
    06:00 +24°C° 0 mm 3 mps 760 mmHg 43%
    07:00 +25°C° 0 mm 4 mps 760 mmHg 40%
    08:00 +28°C° 0 mm 4 mps 760 mmHg 34%
    09:00 +32°C° 0 mm 4 mps 760 mmHg 27%
    10:00 +35°C° 0 mm 5 mps 760 mmHg 21%
    11:00 +37°C° 0 mm 4 mps 759 mmHg 18%
    12:00 +38°C° 0 mm 4 mps 759 mmHg 16%
    13:00 +40°C° 0 mm 3 mps 758 mmHg 13%
    14:00 +40°C° 0 mm 3 mps 758 mmHg 13%
    15:00 +42°C° 0 mm 3 mps 757 mmHg 12%
    16:00 +41°C° 0 mm 2 mps 757 mmHg 12%
    17:00 +39°C° 0 mm 2 mps 756 mmHg 15%
    18:00 +37°C° 0 mm 2 mps 756 mmHg 19%
    19:00 +36°C° 0 mm 2 mps 756 mmHg 22%
    20:00 +34°C° 0 mm 2 mps 756 mmHg 23%
    21:00 +31°C° 0 mm 2 mps 757 mmHg 23%
    22:00 +29°C° 0 mm 3 mps 757 mmHg 24%
    23:00 +28°C° 0 mm 3 mps 757 mmHg 25%

    Tomorrow, 19 January, Friday

    Time Temperature Precipitation Wind Pressure Humidity
    00:00 +27°C° 0 mm 2 mps 757 mmHg 26%
    01:00 +26°C° 0 mm 2 mps 757 mmHg 27%
    02:00 +26°C° 0 mm 2 mps 757 mmHg 27%
    03:00 +25°C° 0 mm 3 mps 757 mmHg 27%
    04:00 +25°C° 0 mm 3 mps 757 mmHg 27%
    05:00 +26°C° 0 mm 3 mps 757 mmHg 27%
    06:00 +27°C° 0 mm 4 mps 757 mmHg 26%
    07:00 +28°C° 0 mm 4 mps 757 mmHg 25%
    08:00 +32°C° 0 mm 4 mps 757 mmHg 21%
    09:00 +36°C° 0 mm 4 mps 757 mmHg 17%
    10:00 +40°C° 0 mm 5 mps 757 mmHg 14%
    11:00 +41°C° 0 mm 4 mps 757 mmHg 13%
    12:00 +43°C° 0 mm 4 mps 757 mmHg 11%
    13:00 +44°C° 0 mm 3 mps 756 mmHg 10%
    14:00 +43°C° 0 mm 3 mps 756 mmHg 12%
    15:00 +43°C° 0 mm 3 mps 756 mmHg 14%
    16:00 +42°C° 0 mm 3 mps 755 mmHg 16%
    17:00 +38°C° 0 mm 3 mps 755 mmHg 22%
    18:00 +35°C° 0 mm 3 mps 755 mmHg 28%
    19:00 +33°C° 0 mm 3 mps 755 mmHg 35%
    20:00 +29°C° 0 mm 3 mps 756 mmHg 42%
    21:00 +27°C° 0 mm 3 mps 757 mmHg 49%
    22:00 +25°C° 0 mm 3 mps 757 mmHg 57%
    23:00 +24°C° 0 mm 2 mps 757 mmHg 62%

    Day after tomorrow, 20 January, Saturday

    Time Temperature Precipitation Wind Pressure Humidity
    00:00 +23°C° 0 mm 2 mps 757 mmHg 67%
    01:00 +22°C° 0 mm 1 mps 757 mmHg 73%
    02:00 +21°C° 0 mm 2 mps 757 mmHg 75%
    03:00 +21°C° 0 mm 2 mps 757 mmHg 78%
    04:00 +21°C° 0 mm 3 mps 758 mmHg 80%
    05:00 +21°C° 0 mm 2 mps 758 mmHg 78%
    06:00 +23°C° 0 mm 2 mps 758 mmHg 77%
    07:00 +23°C° 0 mm 1 mps 759 mmHg 75%
    08:00 +26°C° 0 mm 1 mps 758 mmHg 63%
    09:00 +29°C° 0 mm 2 mps 758 mmHg 51%
    10:00 +32°C° 0 mm 2 mps 758 mmHg 39%
    11:00 +34°C° 0 mm 3 mps 758 mmHg 38%
    12:00 +34°C° 0 mm 3 mps 758 mmHg 37%
    13:00 +35°C° 0 mm 3 mps 757 mmHg 35%
    14:00 +34°C° 0 mm 4 mps 757 mmHg 41%
    15:00 +32°C° 0 mm 4 mps 757 mmHg 46%
    16:00 +30°C° 0 mm 5 mps 756 mmHg 51%
    17:00 +29°C° 0 mm 4 mps 757 mmHg 55%
    18:00 +27°C° 0 mm 3 mps 757 mmHg 59%
    19:00 +26°C° 0 mm 2 mps 757 mmHg 64%
    20:00 +25°C° 0 mm 2 mps 757 mmHg 68%
    21:00 +24°C° 0 mm 2 mps 757 mmHg 72%
    22:00 +23°C° 0 mm 2 mps 758 mmHg 77%
    23:00 +23°C° 0 mm 2 mps 757 mmHg 77%

    21 January, Sunday

    Time Temperature Precipitation Wind Pressure Humidity
    00:00 +23°C° 0 mm 2 mps 757 mmHg 77%
    01:00 +23°C° 0 mm 2 mps 756 mmHg 78%
    02:00 +23°C° 0 mm 2 mps 756 mmHg 76%
    03:00 +24°C° 0 mm 2 mps 756 mmHg 73%
    04:00 +24°C° 0 mm 1 mps 756 mmHg 71%
    05:00 +24°C° 0 mm 1 mps 756 mmHg 71%
    06:00 +24°C° 0 mm 2 mps 755 mmHg 72%
    07:00 +24°C° 0 mm 2 mps 755 mmHg 72%
    08:00 +26°C° 0 mm 2 mps 755 mmHg 64%
    09:00 +28°C° 0 mm 1 mps 755 mmHg 56%
    10:00 +30°C° 0 mm 1 mps 755 mmHg 48%
    11:00 +32°C° 0 mm 2 mps 755 mmHg 44%
    12:00 +35°C° 0 mm 2 mps 754 mmHg 39%
    13:00 +36°C° 0 mm 2 mps 753 mmHg 35%
    14:00 +35°C° 0 mm 3 mps 753 mmHg 38%
    15:00 +35°C° 0 mm 3 mps 752 mmHg 41%
    16:00 +34°C° 0 mm 3 mps 752 mmHg 43%
    17:00 +31°C° 0.3 mm 3 mps 752 mmHg 51%
    18:00 +29°C° 0.3 mm 4 mps 752 mmHg 59%
    19:00 +27°C° 0.3 mm 4 mps 752 mmHg 67%
    20:00 +26°C° 0.1 mm 3 mps 753 mmHg 71%
    21:00 +25°C° 0.1 mm 2 mps 753 mmHg 74%
    22:00 +24°C° 0.1 mm 1 mps 753 mmHg 77%
    23:00 +24°C° 0.1 mm 1 mps 753 mmHg 80%

    22 January, Monday

    Time Temperature Precipitation Wind Pressure Humidity
    00:00 +24°C° 0.1 mm 1 mps 752 mmHg 82%
    01:00 +23°C° 0.1 mm 2 mps 752 mmHg 85%
    02:00 +23°C° 0 mm 2 mps 752 mmHg 87%
    03:00 +22°C° 0 mm 1 mps 751 mmHg 90%
    04:00 +21°C° 0 mm 1 mps 751 mmHg 93%
    05:00 +21°C° 0 mm 2 mps 752 mmHg 91%
    06:00 +21°C° 0 mm 2 mps 752 mmHg 90%
    07:00 +22°C° 0 mm 3 mps 752 mmHg 88%
    08:00 +24°C° 0 mm 3 mps 753 mmHg 82%
    09:00 +25°C° 0 mm 2 mps 753 mmHg 77%
    10:00 +26°C° 0 mm 2 mps 753 mmHg 71%
    11:00 +27°C° 0 mm 3 mps 753 mmHg 65%
    12:00 +29°C° 0 mm 3 mps 752 mmHg 59%
    13:00 +30°C° 0 mm 3 mps 752 mmHg 53%
    14:00 +30°C° 0 mm 4 mps 752 mmHg 53%
    15:00 +30°C° 0 mm 4 mps 752 mmHg 54%
    16:00 +29°C° 0 mm 5 mps 752 mmHg 55%
    17:00 +27°C° 0 mm 5 mps 752 mmHg 61%
    18:00 +26°C° 0 mm 4 mps 752 mmHg 67%
    19:00 +23°C° 0 mm 4 mps 753 mmHg 72%
    20:00 +22°C° 0 mm 4 mps 753 mmHg 76%
    21:00 +21°C° 0 mm 4 mps 754 mmHg 80%
    22:00 +20°C° 0 mm 4 mps 754 mmHg 83%
    23:00 +19°C° 0 mm 4 mps 754 mmHg 83%

    23 January, Tuesday

    Time Temperature Precipitation Wind Pressure Humidity
    00:00 +18°C° 0 mm 3 mps 754 mmHg 84%
    01:00 +18°C° 0 mm 3 mps 754 mmHg 84%
    02:00 +18°C° 0 mm 3 mps 754 mmHg 84%
    03:00 +17°C° 0 mm 3 mps 754 mmHg 85%
    04:00 +17°C° 0 mm 3 mps 754 mmHg 85%
    05:00 +17°C° 0 mm 3 mps 754 mmHg 83%
    06:00 +17°C° 0 mm 3 mps 755 mmHg 82%
    07:00 +17°C° 0 mm 3 mps 755 mmHg 80%
    08:00 +18°C° 0 mm 3 mps 755 mmHg 75%
    09:00 +19°C° 0 mm 4 mps 755 mmHg 71%
    10:00 +20°C° 0 mm 4 mps 755 mmHg 66%
    11:00 +21°C° 0 mm 4 mps 755 mmHg 62%
    12:00 +22°C° 0 mm 4 mps 755 mmHg 59%
    13:00 +23°C° 0 mm 4 mps 754 mmHg 55%
    14:00 +23°C° 0 mm 5 mps 754 mmHg 54%
    15:00 +23°C° 0 mm 5 mps 754 mmHg 53%
    16:00 +25°C° 0 mm 5 mps 754 mmHg 51%
    17:00 +22°C° 0 mm 5 mps 754 mmHg 56%
    18:00 +21°C° 0 mm 5 mps 755 mmHg 61%
    19:00 +20°C° 0 mm 4 mps 755 mmHg 65%
    20:00 +19°C° 0 mm 4 mps 755 mmHg 71%
    21:00 +18°C° 0 mm 3 mps 756 mmHg 77%
    22:00 +17°C° 0 mm 3 mps 756 mmHg 82%
    23:00 +16°C° 0 mm 3 mps 756 mmHg 84%
    Show more